COSMOS 2529 (757)

Last updated on Sat Apr 13 2024 01:03:06 GMT+0100 (British Summer Time)

1 43687U 18086A 24102.37927240 .00000018 00000+0 00000+0 0 9991 2 43687 64.3011 219.5450 0008586 259.9985 99.8983 2.13102008 42307
UTC large
Height (km)
Speed (km/s)
/
Latitude / Longitude
Inclination (degrees)
Orbital Period (minutes)
Azimuth
Elevation
Range (km)
Doppler Factor

Next 0 passes for location: London (51.5072 / 0.1276)

Sorry there are no passes over London.